Probability
0 0 0 0 0 0 0 1 2 3 3 3 3 3 3 3 2 1 0 0 1 2 2 1 0 1 1 1 2 2 1 1 2 2 1 0 1 2 3 2 1 2 2
0 0 0 0 0 0 0 1 2 2 3 3 3 3 3 3 2 1 0 0 0 1 2 1 0 0 1 1 2 2 2 1 1 1 0 0 1 2 3 2 1 1 1
0 0 0 0 0 0 0 0 1 1 1 1 2 3 3 3 2 1 0 0 0 0 1 1 0 0 0 1 1 1 2 2 2 2 1 0 0 1 2 2 2 2 1
0 0 0 0 0 0 0 0 0 0 0 0 1 2 3 3 2 1 0 0 0 0 0 0 0 0 0 0 0 0 1 1 3 3 2 0 0 1 1 1 1 2 2
0 0 0 0 0 0 0 0 0 0 0 0 0 1 2 1 1 0 0 0 0 0 0 0 0 0 0 0 0 0 0 1 2 2 1 0 0 0 0 0 0 1 2
0 0 0 0 0 0 0 0 0 0 0 0 0 0 0 0 0 0 0 0 0 0 0 0 0 0 0 0 0 0 0 0 1 1 0 0 0 0 0 0 0 0 1
0 0 0 0 0 0 0 0 0 0 0 0 0 0 0 0 0 0 0 0 0 0 0 0 0 0 0 0 0 0 0 0 0 0 0 0 0 0 0 0 0 0 0
2 2 2 1 1 1 1 0 0 0 0 0 0 0 0 0 0 0 0 0 0 0 0 0 0 0 0 0 0 0 0 0 0 0 0 0 0 0 0 0 0 0 0
5 4 3 2 3 3 2 0 0 0 0 0 0 0 0 0 0 0 0 0 0 0 0 0 0 0 0 0 0 0 0 0 0 0 0 0 0 0 0 0 0 0 0
5 4 2 1 2 2 1 0 0 0 0 0 0 0 0 0 0 0 0 0 0 0 0 0 0 0 0 0 0 0 0 0 0 0 0 0 0 0 0 0 0 0 0
2 1 0 0 0 0 0 0 0 0 1 1 1 0 0 0 0 0 0 0 0 0 0 0 0 0 0 1 0 0 0 0 0 0 0 0 0 0 1 0 0 0 0
0 0 0 0 0 0 0 0 0 0 1 1 1 0 0 0 0 1 1 1 1 0 0 0 0 0 0 1 0 0 0 0 0 0 0 0 0 0 0 0 0 0 0
1 0 0 0 0 0 0 0 0 0 0 0 0 0 1 1 1 2 2 2 2 1 1 0 0 0 0 1 0 0 0 0 0 0 0 0 0 0 0 0 0 0 0
2 1 0 0 0 0 0 0 0 0 0 0 0 1 2 2 3 3 3 3 3 2 1 0 0 0 0 0 0 0 0 0 0 0 0 0 0 0 0 0 0 0 0
3 2 1 0 0 0 0 0 0 0 0 0 0 1 2 3 3 3 3 3 3 3 1 0 0 0 0 0 0 0 0 0 0 0 0 0 0 0 0 0 0 0 0
3 3 1 1 1 2 1 1 1 0 0 0 0 2 3 3 3 3 3 3 3 2 1 0 0 0 0 0 0 0 0 0 0 0 0 0 0 0 0 0 0 0 0
4 4 3 2 3 4 3 2 1 0 0 1 2 4 4 4 3 3 3 3 3 2 1 0 0 0 0 0 0 0 0 0 0 0 0 0 0 0 0 0 0 0 0
4 4 3 2 3 4 3 3 2 1 1 3 5 6 5 4 3 3 3 3 3 2 1 0 0 0 0 0 0 0 0 0 0 0 0 0 0 0 0 0 0 0 0
4 4 3 2 3 4 4 4 3 3 3 4 6 6 6 5 4 3 3 4 3 2 1 0 0 0 0 0 0 0 0 0 0 0 0 0 0 0 0 0 0 0 0
5 4 3 3 4 5 6 6 6 5 4 4 5 6 6 6 6 5 4 5 4 2 1 0 0 0 0 0 0 0 0 0 0 0 0 0 0 0 0 0 0 0 0
4 4 5 5 6 7 7 8 7 6 6 5 4 5 5 6 7 5 4 5 5 3 2 1 0 0 0 0 0 0 0 0 0 0 0 0 0 1 1 1 0 0 0
3 5 6 8 9 8 7 6 5 7 7 6 5 4 4 5 6 5 4 3 3 3 3 4 3 1 1 2 1 1 1 1 1 1 0 0 1 2 2 2 1 0 0
4 5 7 9 10 10 6 3 2 5 7 7 6 6 6 6 6 6 5 4 3 2 3 5 6 5 5 4 3 3 2 2 2 2 1 0 1 2 3 2 1 0 0
7 7 7 8 9 9 5 1 1 3 6 7 7 8 9 8 6 6 7 7 6 5 4 5 7 7 7 6 5 4 4 4 4 3 2 2 2 3 3 3 1 0 0
10 9 7 7 8 9 5 2 1 4 6 8 9 9 9 7 5 5 6 8 8 7 5 5 5 5 5 5 5 5 6 5 5 5 5 5 5 5 4 3 2 0 0
11 9 7 6 9 10 7 2 2 5 8 10 11 9 7 5 3 3 5 8 8 7 6 5 4 3 3 3 4 5 6 6 6 6 6 6 6 6 6 4 2 0 0
Wind_Speed
1 0 0 0 0 1 1 2 2 2 2 2 2 2 2 2 2 2 1 3 3 3 4 4 4 5 5 5 6 6 6 5 5 5 5 5 5 5 4 5 5 4 4
1 0 0 0 0 1 1 2 2 2 2 2 2 2 2 2 2 2 1 1 1 2 2 3 3 3 4 5 5 5 5 5 5 5 6 5 5 5 5 5 5 5 4
1 1 1 1 1 1 2 3 3 3 2 2 2 2 2 2 2 2 1 1 0 1 1 1 1 2 3 4 4 4 5 5 5 5 5 5 6 5 5 5 4 4 4
1 1 1 1 2 2 2 3 3 3 2 2 2 2 2 2 2 2 2 1 1 0 0 0 1 1 2 3 3 3 4 5 4 5 4 4 5 5 5 5 4 4 4
2 2 1 1 2 2 2 3 3 3 3 2 2 2 2 2 1 2 2 1 1 1 1 1 1 0 1 2 2 3 3 4 4 4 5 4 4 4 4 4 4 4 4
2 2 2 2 2 3 3 3 3 3 3 2 3 3 3 2 2 1 1 1 1 1 1 1 1 0 1 0 1 2 2 3 3 3 4 4 3 3 2 3 3 3 4
2 2 2 2 2 2 2 3 3 4 3 3 3 2 3 3 2 1 1 1 1 1 2 1 1 1 1 2 1 1 1 2 2 2 3 2 3 3 3 3 2 2 2
2 3 3 2 2 3 3 3 3 3 2 2 2 2 1 2 2 1 1 1 1 1 1 1 1 1 0 1 1 1 1 1 1 0 1 1 2 3 3 2 2 2 2
2 2 3 3 3 3 3 2 3 3 2 1 1 2 2 1 0 1 1 1 1 1 1 1 1 0 0 0 1 2 2 2 2 2 2 2 2 2 2 2 2 2 2
2 2 3 3 3 2 2 2 2 2 3 2 1 1 1 2 2 1 1 1 1 1 1 1 1 0 0 0 1 2 2 2 2 2 2 2 2 3 2 2 1 1 2
1 2 2 3 3 2 2 2 2 2 2 2 2 2 2 1 2 2 1 0 1 1 1 1 1 1 0 0 0 1 2 2 2 2 3 3 3 3 2 2 1 1 1
1 1 2 2 2 2 2 2 2 2 2 2 2 2 2 2 2 2 2 1 0 1 1 1 0 0 0 0 0 2 2 2 3 3 4 3 3 3 2 2 2 1 1
1 1 2 2 2 2 2 2 2 2 2 3 2 2 2 2 2 3 3 2 1 1 1 1 1 1 1 0 0 1 2 3 3 3 3 3 3 3 2 2 2 2 2
2 2 2 2 2 3 3 2 2 2 2 2 2 2 2 2 2 3 3 3 1 0 0 1 1 1 0 0 0 1 1 3 3 3 3 3 3 2 2 2 3 3 4
2 2 2 2 2 2 3 3 2 2 2 2 2 2 2 1 2 2 2 3 3 2 2 1 1 1 1 1 0 1 1 2 3 2 3 2 2 2 2 2 3 4 4
2 2 2 2 2 2 2 3 2 2 2 2 2 2 2 1 1 2 2 2 2 3 2 1 1 1 1 1 1 1 1 3 2 2 2 3 3 3 3 3 3 3 3
2 3 3 2 2 2 2 2 2 2 3 2 2 2 2 2 2 2 2 2 2 2 2 1 1 1 1 1 1 1 1 1 1 2 2 2 2 3 3 3 3 3 3
2 3 3 2 2 2 2 2 3 3 3 3 3 3 3 2 2 2 2 2 2 3 3 2 1 1 1 1 1 1 1 1 1 2 2 2 2 3 3 3 3 3 3
2 2 2 3 3 2 2 2 3 2 3 3 3 4 4 3 3 2 2 3 2 2 2 3 2 1 1 1 1 1 1 0 1 1 1 2 2 3 3 3 3 3 2
3 2 2 3 3 3 3 3 3 2 2 2 3 3 4 4 4 4 3 3 3 3 3 2 2 1 1 1 2 2 1 1 1 1 1 1 2 2 2 2 2 2 1
3 3 2 2 2 3 3 3 3 3 2 2 2 2 3 4 5 4 4 4 4 3 3 3 2 2 2 2 3 2 2 1 1 1 1 1 1 1 1 2 2 1 1
2 2 2 3 3 3 4 5 4 3 3 3 2 2 2 3 4 5 5 6 6 5 5 4 3 4 4 4 3 3 3 2 2 2 2 2 1 2 2 2 2 2 2
3 3 3 3 4 4 5 5 5 3 3 3 3 3 2 2 3 3 3 4 5 6 7 6 6 6 5 6 6 5 5 4 3 2 2 2 2 3 2 2 3 3 3
3 3 4 4 3 4 5 5 5 3 3 3 3 4 3 3 3 3 3 3 3 4 6 5 6 6 5 5 7 6 5 3 1 2 3 2 2 2 2 3 4 4 4
2 2 2 3 4 4 5 5 4 3 3 3 3 3 4 4 4 4 4 4 3 3 3 5 5 4 5 5 5 4 4 3 2 2 3 2 2 2 2 3 3 5 5
3 3 3 3 4 5 5 6 6 3 3 3 3 3 5 5 5 6 5 5 5 4 3 2 2 3 4 5 7 6 5 4 2 2 3 3 2 2 2 2 2 3 3
Wind_Direction
125 137 83 44 143 129 136 124 118 116 112 114 128 143 154 150 147 145 157 177 178 187 190 184 183 190 190 189 190 191 194 195 197 199 203 207 201 199 203 200 205 210 208
131 123 102 116 98 104 126 128 126 117 107 109 103 106 119 132 134 142 147 155 150 152 156 166 188 193 194 194 192 196 199 204 205 211 212 212 206 203 207 213 220 215 211
131 109 75 74 79 94 107 113 108 100 100 98 92 93 105 117 124 127 119 101 97 118 132 180 195 191 195 197 200 206 209 204 201 204 209 211 210 206 209 217 217 214 219
122 110 88 66 77 94 105 112 104 99 94 90 79 72 85 98 104 111 107 98 88 73 85 206 236 201 194 206 215 222 211 200 202 196 201 209 212 214 213 213 214 217 219
121 114 98 77 90 94 96 113 109 113 107 95 84 68 68 80 83 95 104 104 92 62 32 11 322 229 200 223 234 242 225 210 208 208 210 211 211 214 213 212 220 224 225
119 111 102 91 96 94 90 102 108 102 108 105 88 68 59 63 70 75 91 80 73 66 52 29 4 355 50 25 259 258 231 212 214 212 212 214 202 192 182 198 209 218 226
115 109 108 101 103 108 116 118 115 106 98 104 93 68 47 55 65 56 64 71 57 57 68 60 48 37 360 360 330 276 248 234 232 225 222 201 198 200 202 202 189 189 194
125 128 122 124 126 121 116 121 123 117 115 119 117 107 61 27 26 44 69 91 55 56 69 72 68 77 29 349 17 9 313 304 287 234 205 169 194 202 185 168 169 176 189
121 120 130 128 129 133 142 146 145 140 144 124 101 131 141 171 18 20 43 62 60 61 37 61 68 64 41 335 339 26 48 50 51 45 52 72 79 107 137 154 153 159 162
98 117 125 128 129 129 139 152 134 134 141 147 109 87 132 147 144 109 19 23 35 34 11 14 24 21 17 60 66 67 58 56 68 57 56 65 81 90 88 85 97 129 140
72 107 126 128 130 132 137 130 120 122 135 143 139 130 108 88 113 144 158 354 22 9 4 3 14 8 5 177 203 104 92 80 87 89 85 84 80 85 80 80 90 118 123
62 109 139 141 146 148 153 152 139 138 148 142 142 140 143 144 152 153 164 166 145 336 354 352 317 290 278 274 172 115 121 104 101 98 92 93 89 83 70 69 74 79 82
201 201 171 170 170 174 171 160 148 158 163 161 166 161 161 170 154 152 147 158 169 321 346 340 285 271 235 220 205 128 129 114 108 104 98 102 99 91 78 72 66 59 51
215 201 188 189 191 184 179 169 166 180 166 173 180 171 174 185 170 165 160 155 157 267 280 270 318 256 242 201 182 181 138 123 120 116 111 107 99 90 76 67 65 64 58
203 187 186 192 196 188 181 172 178 190 176 185 188 184 188 193 181 182 174 170 167 191 234 235 225 237 208 190 180 158 150 116 111 104 104 105 100 92 75 59 71 70 65
198 189 190 186 187 184 178 171 175 187 180 199 195 187 195 198 189 183 184 183 183 178 202 219 215 214 192 164 113 132 114 97 102 108 112 106 100 96 86 74 74 71 71
194 199 202 193 191 188 182 173 186 183 186 203 206 198 214 197 193 193 178 176 177 171 186 231 210 168 160 162 116 118 116 107 109 106 103 104 105 102 97 88 78 73 77
206 203 197 192 200 201 193 192 203 198 195 206 210 205 218 200 195 195 186 189 192 189 183 200 210 173 179 178 150 142 121 114 122 102 107 114 125 111 99 93 89 83 79
208 202 191 198 206 204 200 207 203 202 208 216 215 214 218 198 203 197 192 195 195 188 182 180 199 197 188 159 136 129 132 112 127 128 136 148 139 127 118 115 105 94 86
197 207 206 209 208 204 210 213 203 204 216 227 225 221 218 208 204 195 195 191 178 163 154 162 171 185 195 170 166 178 192 204 208 162 129 132 138 145 139 133 128 121 103
205 205 204 219 218 211 218 212 209 207 208 223 230 228 222 208 198 195 192 184 171 166 165 172 183 195 203 189 197 196 202 214 227 193 209 212 190 196 188 185 183 180 172
215 204 211 215 228 239 231 218 208 208 206 207 221 234 228 208 198 198 195 188 180 179 186 190 203 210 218 211 199 192 185 190 224 198 201 229 205 221 224 217 210 209 217
218 219 224 220 230 243 235 224 214 205 211 215 214 214 221 214 190 191 187 191 205 208 197 195 206 217 212 205 191 192 196 202 214 190 182 222 218 237 240 230 222 223 227
223 229 232 231 231 244 233 221 208 204 212 221 222 214 213 216 209 191 191 201 220 229 220 212 218 222 216 204 195 195 194 190 198 188 182 217 221 241 252 240 225 224 227
238 239 238 233 236 251 238 219 197 194 210 227 228 218 209 212 208 186 185 203 224 245 236 219 223 221 206 190 178 166 172 183 214 212 186 208 217 232 243 239 233 224 223
236 240 246 240 237 244 236 217 195 198 214 230 232 229 218 215 208 194 197 203 218 232 223 215 220 231 218 195 182 189 191 193 203 222 188 193 197 189 236 232 233 230 228